EFW42M EGKK-EBBR

Flight info

Callsign EFW42M
Flight time 0h 38m
Altitude 23000
Route MIMFO Y312 DVR L18 VABIK Q70 KOK
Aircraft A320/M-SDE3FGHIRWY/LB1

Departure

Time 2026-05-04 07:02
Airport London Gatwick Airport (EGKK)

Arrival

Time 2026-05-04 07:41
Airport Brussels Airport (EBBR)
Time Latitude Longitude Altitude Speed Heading
2026-05-04 06:54 51.15452 -0.16803 205 ft 0 kts 94°
2026-05-04 06:55 51.15452 -0.16807 205 ft 2 kts 89°
2026-05-04 06:56 51.15449 -0.16832 207 ft 2 kts 78°
2026-05-04 06:57 51.15447 -0.16841 209 ft 0 kts 78°
2026-05-04 06:59 51.15448 -0.16835 208 ft 2 kts 78°
2026-05-04 06:59 51.15453 -0.16794 205 ft 4 kts 82°
2026-05-04 06:59 51.15444 -0.16747 213 ft 5 kts 126°
2026-05-04 06:59 51.15413 -0.16721 207 ft 6 kts 166°
2026-05-04 07:01 51.15132 -0.16733 207 ft 2 kts 257°
2026-05-04 07:01 51.15130 -0.16749 205 ft 7 kts 257°
2026-05-04 07:02 51.15064 -0.17232 208 ft 78 kts 257°
2026-05-04 07:02 51.14907 -0.18369 207 ft 130 kts 257°
2026-05-04 07:02 51.14682 -0.19995 243 ft 167 kts 258°
2026-05-04 07:02 51.14443 -0.21765 905 ft 161 kts 258°
2026-05-04 07:03 51.14205 -0.23461 1488 ft 156 kts 259°
2026-05-04 07:03 51.13952 -0.25327 1695 ft 182 kts 259°
2026-05-04 07:03 51.13694 -0.27403 2038 ft 200 kts 266°
2026-05-04 07:03 51.13979 -0.29666 2255 ft 224 kts 300°
2026-05-04 07:04 51.15018 -0.31480 2849 ft 224 kts 329°
2026-05-04 07:04 51.16520 -0.32226 3516 ft 233 kts 359°
2026-05-04 07:04 51.18092 -0.31652 3993 ft 239 kts 30°
2026-05-04 07:04 51.19209 -0.29630 4502 ft 251 kts 70°
2026-05-04 07:05 51.19573 -0.26959 5530 ft 244 kts 80°
2026-05-04 07:05 51.19872 -0.24319 6481 ft 239 kts 80°
2026-05-04 07:05 51.20171 -0.21759 7307 ft 239 kts 80°
2026-05-04 07:05 51.20487 -0.19080 7808 ft 256 kts 80°
2026-05-04 07:06 51.21270 -0.13063 8743 ft 291 kts 78°
2026-05-04 07:06 51.21706 -0.09899 9564 ft 294 kts 79°
2026-05-04 07:06 51.22141 -0.06691 10254 ft 302 kts 79°
2026-05-04 07:07 51.22586 -0.03287 10477 ft 325 kts 79°
2026-05-04 07:08 51.25133 0.24946 13915 ft 385 kts 98°
2026-05-04 07:09 51.24804 0.29205 14499 ft 388 kts 98°
2026-05-04 07:09 51.24478 0.33495 15063 ft 391 kts 98°
2026-05-04 07:09 51.24151 0.37828 15627 ft 394 kts 98°
2026-05-04 07:09 51.23820 0.42183 16183 ft 397 kts 99°
2026-05-04 07:10 51.23480 0.46577 16744 ft 400 kts 99°
2026-05-04 07:10 51.23137 0.50973 17442 ft 396 kts 99°
2026-05-04 07:12 51.20803 0.80878 21750 ft 400 kts 99°
2026-05-04 07:12 51.20448 0.85296 22198 ft 403 kts 100°
2026-05-04 07:12 51.20086 0.89748 22638 ft 407 kts 100°
2026-05-04 07:12 51.19718 0.94244 22949 ft 411 kts 100°
2026-05-04 07:13 51.19357 0.98704 22991 ft 397 kts 99°
2026-05-04 07:13 51.19004 1.03070 23001 ft 405 kts 100°
2026-05-04 07:13 51.18630 1.07614 23000 ft 421 kts 100°
2026-05-04 07:14 51.16988 1.27219 22998 ft 471 kts 99°
2026-05-04 07:14 51.16617 1.32414 22997 ft 476 kts 95°
2026-05-04 07:15 51.16667 1.37703 22993 ft 479 kts 86°
2026-05-04 07:15 51.17195 1.42948 22984 ft 480 kts 79°
2026-05-04 07:15 51.17902 1.48157 22995 ft 481 kts 79°
2026-05-04 07:15 51.18601 1.53369 22991 ft 481 kts 79°
2026-05-04 07:16 51.19169 1.58605 22989 ft 479 kts 88°
2026-05-04 07:16 51.19026 1.63875 22998 ft 475 kts 100°
2026-05-04 07:16 51.18574 1.69091 22992 ft 475 kts 100°
2026-05-04 07:16 51.18104 1.74298 22986 ft 475 kts 100°
2026-05-04 07:17 51.17624 1.79498 22983 ft 475 kts 101°
2026-05-04 07:17 51.17141 1.84698 22980 ft 475 kts 101°
2026-05-04 07:17 51.16658 1.89909 22951 ft 474 kts 101°
2026-05-04 07:17 51.16178 1.95103 22951 ft 474 kts 101°
2026-05-04 07:18 51.15697 2.00298 22953 ft 475 kts 101°
2026-05-04 07:18 51.15210 2.05501 22955 ft 475 kts 101°
2026-05-04 07:18 51.14721 2.10703 22954 ft 475 kts 101°
2026-05-04 07:18 51.14229 2.15902 22955 ft 475 kts 101°
2026-05-04 07:19 51.13736 2.21100 22957 ft 475 kts 101°
2026-05-04 07:19 51.13242 2.26300 22961 ft 475 kts 101°
2026-05-04 07:19 51.12753 2.31435 22961 ft 475 kts 101°
2026-05-04 07:19 51.12251 2.36698 22962 ft 475 kts 101°
2026-05-04 07:20 51.11751 2.41897 22945 ft 475 kts 102°
2026-05-04 07:20 51.11245 2.47097 22950 ft 475 kts 102°
2026-05-04 07:20 51.10735 2.52293 22953 ft 475 kts 102°
2026-05-04 07:20 51.10224 2.57492 22956 ft 476 kts 102°
2026-05-04 07:22 51.06098 2.93305 20283 ft 459 kts 104°
2026-05-04 07:22 51.05683 2.96659 19982 ft 457 kts 103°
2026-05-04 07:23 51.05077 3.01592 19540 ft 454 kts 103°
2026-05-04 07:23 51.04476 3.06511 19104 ft 451 kts 103°
2026-05-04 07:23 51.03881 3.11378 18674 ft 447 kts 103°
2026-05-04 07:23 51.03289 3.16194 18246 ft 444 kts 103°
2026-05-04 07:24 51.02693 3.21001 17757 ft 441 kts 103°
2026-05-04 07:24 51.02098 3.25766 17279 ft 438 kts 103°
2026-05-04 07:24 51.01508 3.30486 16805 ft 434 kts 103°
2026-05-04 07:24 51.00921 3.35178 16325 ft 432 kts 103°
2026-05-04 07:25 51.00338 3.39832 15875 ft 429 kts 103°
2026-05-04 07:26 50.96317 3.71447 12710 ft 407 kts 103°
2026-05-04 07:27 50.95749 3.75839 12242 ft 404 kts 103°
2026-05-04 07:27 50.95187 3.80185 11785 ft 403 kts 103°
2026-05-04 07:27 50.94621 3.84534 11337 ft 402 kts 103°
2026-05-04 07:27 50.94057 3.88858 10889 ft 399 kts 103°
2026-05-04 07:28 50.93509 3.93163 10434 ft 397 kts 100°
2026-05-04 07:28 50.93538 3.97458 10211 ft 384 kts 79°
2026-05-04 07:28 50.94362 4.01354 10196 ft 362 kts 68°
2026-05-04 07:28 50.95299 4.04955 10193 ft 344 kts 68°
2026-05-04 07:29 50.96200 4.08377 10192 ft 328 kts 68°
2026-05-04 07:29 50.97062 4.11645 10190 ft 314 kts 68°
2026-05-04 07:29 50.97891 4.14787 10189 ft 306 kts 68°
2026-05-04 07:29 50.98710 4.17892 10192 ft 305 kts 68°
2026-05-04 07:30 50.99530 4.21005 10073 ft 306 kts 68°
2026-05-04 07:30 51.00240 4.24177 9764 ft 305 kts 72°
2026-05-04 07:30 51.00897 4.27393 9311 ft 308 kts 72°
2026-05-04 07:30 51.01552 4.30639 8864 ft 310 kts 72°
2026-05-04 07:31 51.02207 4.33899 8498 ft 309 kts 72°
2026-05-04 07:31 51.02856 4.37146 8131 ft 305 kts 72°
2026-05-04 07:33 51.06110 4.58640 5608 ft 280 kts 78°
2026-05-04 07:33 51.06515 4.61669 5277 ft 280 kts 80°
2026-05-04 07:33 51.06613 4.64754 4949 ft 279 kts 91°
2026-05-04 07:33 51.06541 4.67838 4614 ft 279 kts 92°
2026-05-04 07:34 51.06451 4.70909 4281 ft 278 kts 92°
2026-05-04 07:34 51.06358 4.73980 3933 ft 275 kts 93°
2026-05-04 07:34 51.06266 4.76955 3600 ft 264 kts 95°
2026-05-04 07:34 51.05749 4.79652 3259 ft 252 kts 124°
2026-05-04 07:35 51.04537 4.81522 3030 ft 236 kts 149°
2026-05-04 07:35 51.03110 4.82716 2997 ft 231 kts 156°
2026-05-04 07:35 51.01657 4.83655 2995 ft 216 kts 166°
2026-05-04 07:35 51.00202 4.83936 3009 ft 210 kts 184°
2026-05-04 07:36 50.98782 4.83499 2994 ft 208 kts 201°
2026-05-04 07:36 50.97517 4.82390 3012 ft 207 kts 219°
2026-05-04 07:38 50.93849 4.69576 2468 ft 165 kts 250°
2026-05-04 07:38 50.93467 4.67906 2242 ft 154 kts 250°
2026-05-04 07:38 50.93113 4.66357 2043 ft 147 kts 250°
2026-05-04 07:38 50.92769 4.64854 1854 ft 144 kts 250°
2026-05-04 07:39 50.92427 4.63365 1661 ft 143 kts 250°
2026-05-04 07:39 50.92088 4.61885 1466 ft 143 kts 250°
2026-05-04 07:39 50.91750 4.60413 1275 ft 142 kts 250°
2026-05-04 07:39 50.91414 4.58948 1084 ft 142 kts 250°
2026-05-04 07:40 50.91077 4.57480 887 ft 141 kts 249°
2026-05-04 07:40 50.90742 4.56025 693 ft 140 kts 249°
2026-05-04 07:40 50.90413 4.54569 502 ft 140 kts 249°
2026-05-04 07:40 50.90082 4.53144 312 ft 140 kts 249°
2026-05-04 07:41 50.89755 4.51715 151 ft 131 kts 249°
2026-05-04 07:41 50.89495 4.50596 144 ft 84 kts 250°
2026-05-04 07:41 50.89359 4.50003 150 ft 43 kts 250°
2026-05-04 07:41 50.89255 4.49558 144 ft 38 kts 250°
2026-05-04 07:42 50.89228 4.49335 140 ft 14 kts 290°
2026-05-04 07:42 50.89288 4.49202 140 ft 16 kts 310°
2026-05-04 07:42 50.89353 4.49078 142 ft 14 kts 310°
2026-05-04 07:42 50.89397 4.49014 144 ft 7 kts 339°
2026-05-04 07:43 50.89449 4.49020 144 ft 9 kts 14°
2026-05-04 07:43 50.89512 4.49044 144 ft 10 kts 14°
2026-05-04 07:43 50.89583 4.49076 144 ft 11 kts 19°
2026-05-04 07:43 50.89653 4.49145 144 ft 8 kts 27°
2026-05-04 07:44 50.89713 4.49174 144 ft 10 kts 15°
2026-05-04 07:44 50.89781 4.49202 146 ft 10 kts 13°
2026-05-04 07:44 50.89853 4.49230 146 ft 12 kts 14°
2026-05-04 07:44 50.89939 4.49261 144 ft 11 kts 358°
2026-05-04 07:45 50.89966 4.49178 145 ft 9 kts 251°
2026-05-04 07:45 50.89963 4.49170 145 ft 0 kts 247°
2026-05-04 07:45 50.89963 4.49168 145 ft 0 kts 247°
2026-05-04 07:45 50.89963 4.49167 145 ft 0 kts 246°
2026-05-04 07:46 50.89957 4.49148 145 ft 8 kts 245°
2026-05-04 07:46 50.89991 4.49087 145 ft 9 kts 342°
2026-05-04 07:46 50.90029 4.49060 145 ft 7 kts 335°
2026-05-04 07:47 50.90044 4.49049 145 ft 2 kts 335°
2026-05-04 07:47 50.90049 4.49046 145 ft 0 kts 335°